Location: Auckland
(36.8670°S, 174.7670°E)
Time: 21:57:57
(UTC+12:00)

Tiros 1 despin weight - Pass Details

Date: 28 July 2019
Orbit: 594 x 642 km, 48.2° (Epoch: 20 August)

Event Time Altitude Azimuth Distance (km) Brightness Sun altitude
Rises 05:38:00 0° 255° (WSW) 2,870 - -21.0°
Reaches altitude 10° 05:41:28 10° 282° (WNW) 1,967 - -20.3°
Maximum altitude 05:43:31 13° 309° (NW) 1,781 - -19.9°
Exits shadow 05:45:01 11° 330° (NNW) 1,885 ? -19.6°
Drops below altitude 10° 05:45:34 10° 337° (NNW) 1,970 ? -19.5°
Sets 05:49:03 0° 4° (N) 2,878 ? -18.8°
